Hourly Data Report for April 09, 2012

MIRAMICHI RCS
NEW BRUNSWICK

47°00'34.000" N
65°27'54.000" W
33.00 m
8100989
71744
ACQ

Download Data

Hourly Data (April 2012)
Hourly Data Report for April 9, 2012
TIME
LST
Temp Definition
°C
Dew Point Definition
°C
Rel Hum Definition
%
Precip. Amount Definition
mm

Wind Dir Definition
10's deg

Wind Spd Definition
km/h
Visibility Definition
km
Stn Press Definition
kPa
Hmdx Definition


Wind Chill Definition


Weather Definition


00:00 0.9 -0.1 93   15 15   99.29     LegendNANA
01:00 0.9 0.0 94   15 15   99.27     LegendNANA
02:00 0.8 -0.1 94   15 17   99.26     LegendNANA
03:00 0.9 0.0 94   15 17   99.24     LegendNANA
04:00 1.0 0.0 93   16 17   99.20     LegendNANA
05:00 0.8 -0.1 94   16 17   99.22     LegendNANA
06:00 1.1 0.2 94   17 15   99.25     LegendNANA
07:00 1.5 0.5 93   17 17   99.31     LegendNANA
08:00 1.8 0.6 92   18 15   99.32     LegendNANA
09:00 2.4 1.0 90   18 13   99.35     LegendNANA
10:00 3.0 1.4 89   17 19   99.35     LegendNANA
11:00 3.6 1.9 89   17 17   99.34     LegendNANA
12:00 4.0 1.9 86   16 19   99.28     LegendNANA
13:00 4.2 2.2 87   15 17   99.25     LegendNANA
14:00 4.8 2.8 87   14 13   99.20     LegendNANA
15:00 5.9 3.6 85   15 15   99.15     LegendNANA
16:00 5.9 3.7 86   11 7   99.09     LegendNANA
17:00 6.1 3.7 85   7 11   99.03     LegendNANA
18:00 5.2 3.2 87   5 15   98.95     LegendNANA
19:00 4.3 3.2 93   26 6   98.98     LegendNANA
20:00 3.6 2.6 93   27 11   99.09     LegendNANA
21:00 2.8 1.7 92   21 6   99.14     LegendNANA
22:00 2.8 2.1 95   24 6   99.19     LegendNANA
23:00 2.6 1.9 95   24 9   99.24     LegendNANA

Notes on Data Quality.

Legend

  • E = Estimated
  • M = Missing
  • NA = Not Available*
  • [empty] = Indicates an unobserved value
Date modified: